Time,TemperatureF,DewpointF,PressureIn,WindDirection,WindDirectionDegrees,WindSpeedMPH,WindSpeedGustMPH,Humidity,HourlyPrecipIn,Conditions,Clouds,dailyrainin,SoftwareType,DateUTC
2013-08-18 00:01:00,63.4,58.5,29.91,SW,220,0.0,0.0,84,0.00,,---,0.00,VWS V14.01,2013-08-18 07:01:00,
2013-08-18 00:06:00,63.5,58.9,29.91,SW,220,0.0,0.0,85,0.00,,---,0.00,VWS V14.01,2013-08-18 07:06:00,
2013-08-18 00:11:00,63.5,58.9,29.91,SW,220,0.0,0.0,85,0.00,,---,0.00,VWS V14.01,2013-08-18 07:11:00,
2013-08-18 00:16:00,63.5,59.2,29.91,SW,220,0.0,0.0,86,0.00,,---,0.00,VWS V14.01,2013-08-18 07:16:00,
2013-08-18 00:21:00,63.4,59.2,29.91,SW,220,0.0,0.0,86,0.00,,---,0.00,VWS V14.01,2013-08-18 07:21:00,
2013-08-18 00:26:00,63.3,59.0,29.91,SW,220,0.0,0.0,86,0.00,,---,0.00,VWS V14.01,2013-08-18 07:26:00,
2013-08-18 00:31:00,63.2,59.0,29.91,SW,220,0.0,0.0,86,0.00,,---,0.00,VWS V14.01,2013-08-18 07:31:00,
2013-08-18 00:36:00,63.1,58.8,29.91,SW,220,0.0,0.0,86,0.00,,---,0.00,VWS V14.01,2013-08-18 07:36:00,
2013-08-18 00:41:00,63.0,59.1,29.91,SW,220,0.0,0.0,87,0.00,,---,0.00,VWS V14.01,2013-08-18 07:41:00,
2013-08-18 00:46:00,62.8,58.9,29.91,SW,220,0.0,0.0,87,0.00,,---,0.00,VWS V14.01,2013-08-18 07:46:00,
2013-08-18 00:51:00,62.6,58.7,29.91,SW,220,0.0,0.0,87,0.00,,---,0.00,VWS V14.01,2013-08-18 07:51:00,
2013-08-18 00:56:00,62.4,58.5,29.91,SW,220,0.0,0.0,87,0.00,,---,0.00,VWS V14.01,2013-08-18 07:56:00,
2013-08-18 01:01:00,62.2,58.3,29.92,SW,220,0.0,0.0,87,0.00,,---,0.00,VWS V14.01,2013-08-18 08:01:00,
2013-08-18 01:06:00,61.8,57.9,29.91,SW,220,0.0,0.0,87,0.00,,---,0.00,VWS V14.01,2013-08-18 08:06:00,
2013-08-18 01:11:00,61.7,58.1,29.91,SW,220,0.0,0.0,88,0.00,,---,0.00,VWS V14.01,2013-08-18 08:11:00,
2013-08-18 01:16:00,61.5,57.9,29.91,SW,220,0.0,0.0,88,0.00,,---,0.00,VWS V14.01,2013-08-18 08:16:00,
2013-08-18 01:21:00,61.4,57.8,29.91,SW,220,0.0,0.0,88,0.00,,---,0.00,VWS V14.01,2013-08-18 08:21:00,
2013-08-18 01:26:00,61.3,58.0,29.91,SW,220,0.0,0.0,89,0.00,,---,0.00,VWS V14.01,2013-08-18 08:26:00,
2013-08-18 01:31:00,61.3,58.0,29.91,SW,220,0.0,0.0,89,0.00,,---,0.00,VWS V14.01,2013-08-18 08:31:00,
2013-08-18 01:36:00,61.2,57.9,29.91,SW,220,0.0,0.0,89,0.00,,---,0.00,VWS V14.01,2013-08-18 08:36:00,
2013-08-18 01:41:00,61.0,57.7,29.90,SW,220,0.0,0.0,89,0.00,,---,0.00,VWS V14.01,2013-08-18 08:41:00,
2013-08-18 01:46:00,60.8,57.5,29.90,SW,220,0.0,0.0,89,0.00,,---,0.00,VWS V14.01,2013-08-18 08:46:00,
2013-08-18 01:51:00,60.8,57.8,29.90,SW,220,0.0,0.0,90,0.00,,---,0.00,VWS V14.01,2013-08-18 08:51:00,
2013-08-18 01:56:00,60.7,57.8,29.90,SW,220,0.0,0.0,90,0.00,,---,0.00,VWS V14.01,2013-08-18 08:56:00,
2013-08-18 02:01:00,60.6,57.7,29.90,SW,220,0.0,0.0,90,0.00,,---,0.00,VWS V14.01,2013-08-18 09:01:00,
2013-08-18 02:06:00,60.7,58.1,29.90,SW,220,0.0,0.0,91,0.00,,---,0.00,VWS V14.01,2013-08-18 09:06:00,
2013-08-18 02:11:00,60.8,58.2,29.90,SW,220,0.0,0.0,91,0.00,,---,0.00,VWS V14.01,2013-08-18 09:11:00,
2013-08-18 02:16:00,60.9,58.3,29.89,SW,220,0.0,0.0,91,0.00,,---,0.00,VWS V14.01,2013-08-18 09:16:00,
2013-08-18 02:21:00,60.7,57.8,29.90,SW,220,0.0,0.0,90,0.00,,---,0.00,VWS V14.01,2013-08-18 09:21:00,
2013-08-18 02:26:00,60.4,57.5,29.90,SW,220,0.0,0.0,90,0.00,,---,0.00,VWS V14.01,2013-08-18 09:26:00,
2013-08-18 02:31:00,60.3,57.7,29.90,SW,220,0.0,0.0,91,0.00,,---,0.00,VWS V14.01,2013-08-18 09:31:00,
2013-08-18 02:36:00,60.3,57.7,29.89,SW,220,0.0,0.0,91,0.00,,---,0.00,VWS V14.01,2013-08-18 09:36:00,
2013-08-18 02:41:00,60.4,58.1,29.90,SW,220,0.0,0.0,92,0.00,,---,0.00,VWS V14.01,2013-08-18 09:41:00,
2013-08-18 02:46:00,60.5,58.2,29.89,SW,220,0.0,0.0,92,0.00,,---,0.00,VWS V14.01,2013-08-18 09:46:00,
2013-08-18 02:51:00,60.6,58.3,29.90,SW,220,0.0,0.0,92,0.00,,---,0.00,VWS V14.01,2013-08-18 09:51:00,
2013-08-18 02:56:00,60.5,57.9,29.89,SW,220,0.0,0.0,91,0.00,,---,0.00,VWS V14.01,2013-08-18 09:56:00,
2013-08-18 03:01:00,60.5,58.2,29.89,SW,220,0.0,0.0,92,0.00,,---,0.00,VWS V14.01,2013-08-18 10:01:00,
2013-08-18 03:06:00,60.4,58.1,29.89,SW,220,0.0,0.0,92,0.00,,---,0.00,VWS V14.01,2013-08-18 10:06:00,
2013-08-18 03:11:00,60.2,57.6,29.89,SW,220,0.0,0.0,91,0.00,,---,0.00,VWS V14.01,2013-08-18 10:11:00,
2013-08-18 03:16:00,60.1,57.8,29.89,SW,220,0.0,0.0,92,0.00,,---,0.00,VWS V14.01,2013-08-18 10:16:00,
2013-08-18 03:21:00,59.8,57.2,29.88,SW,220,0.0,0.0,91,0.00,,---,0.00,VWS V14.01,2013-08-18 10:21:00,
2013-08-18 03:26:00,59.5,56.9,29.88,SW,220,0.0,0.0,91,0.00,,---,0.00,VWS V14.01,2013-08-18 10:26:00,
2013-08-18 03:31:00,59.2,56.6,29.89,SW,220,0.0,0.0,91,0.00,,---,0.00,VWS V14.01,2013-08-18 10:31:00,
2013-08-18 03:36:00,59.2,56.9,29.89,SW,220,0.0,0.0,92,0.00,,---,0.00,VWS V14.01,2013-08-18 10:36:00,
2013-08-18 03:41:00,59.4,57.4,29.88,SW,220,0.0,0.0,93,0.00,,---,0.00,VWS V14.01,2013-08-18 10:41:00,
2013-08-18 03:46:00,59.7,58.0,29.88,SW,220,0.0,0.0,94,0.00,,---,0.00,VWS V14.01,2013-08-18 10:46:00,
2013-08-18 03:51:00,59.7,57.7,29.88,SW,220,0.0,0.0,93,0.00,,---,0.00,VWS V14.01,2013-08-18 10:51:00,
2013-08-18 03:56:00,59.4,57.1,29.88,SW,220,0.0,0.0,92,0.00,,---,0.00,VWS V14.01,2013-08-18 10:56:00,
2013-08-18 04:01:00,59.1,56.8,29.88,SW,220,0.0,0.0,92,0.00,,---,0.00,VWS V14.01,2013-08-18 11:01:00,
2013-08-18 04:06:00,58.9,56.6,29.88,SW,220,0.0,0.0,92,0.00,,---,0.00,VWS V14.01,2013-08-18 11:06:00,
2013-08-18 04:11:00,58.8,56.8,29.88,SW,220,0.0,0.0,93,0.00,,---,0.00,VWS V14.01,2013-08-18 11:11:00,
2013-08-18 04:16:00,58.9,56.9,29.88,SW,220,0.0,0.0,93,0.00,,---,0.00,VWS V14.01,2013-08-18 11:16:00,
2013-08-18 04:21:00,58.9,56.9,29.88,SW,220,0.0,0.0,93,0.00,,---,0.00,VWS V14.01,2013-08-18 11:21:00,
2013-08-18 04:26:00,58.7,56.7,29.88,SW,220,0.0,0.0,93,0.00,,---,0.00,VWS V14.01,2013-08-18 11:26:00,
2013-08-18 04:31:00,58.6,56.6,29.88,SW,220,0.0,0.0,93,0.00,,---,0.00,VWS V14.01,2013-08-18 11:31:00,
2013-08-18 04:36:00,58.6,56.9,29.88,SW,220,0.0,0.0,94,0.00,,---,0.00,VWS V14.01,2013-08-18 11:36:00,
2013-08-18 04:41:00,58.5,56.5,29.88,SW,220,0.0,0.0,93,0.00,,---,0.00,VWS V14.01,2013-08-18 11:41:00,
2013-08-18 04:46:00,58.4,56.4,29.88,SW,220,0.0,0.0,93,0.00,,---,0.00,VWS V14.01,2013-08-18 11:46:00,
2013-08-18 04:51:00,58.3,56.3,29.88,SW,220,0.0,0.0,93,0.00,,---,0.00,VWS V14.01,2013-08-18 11:51:00,
2013-08-18 04:56:00,58.2,56.2,29.89,SW,220,0.0,0.0,93,0.00,,---,0.00,VWS V14.01,2013-08-18 11:56:00,
2013-08-18 05:01:00,58.4,56.7,29.89,SW,220,0.0,0.0,94,0.00,,---,0.00,VWS V14.01,2013-08-18 12:01:00,
2013-08-18 05:06:00,58.6,57.2,29.89,SW,220,0.0,0.0,95,0.00,,---,0.00,VWS V14.01,2013-08-18 12:06:00,
2013-08-18 05:11:00,58.7,57.0,29.89,SW,220,0.0,0.0,94,0.00,,---,0.00,VWS V14.01,2013-08-18 12:11:00,
2013-08-18 05:16:00,58.8,57.1,29.90,SW,220,0.0,0.0,94,0.00,,---,0.00,VWS V14.01,2013-08-18 12:16:00,
2013-08-18 05:21:00,58.8,57.4,29.90,SW,220,0.0,0.0,95,0.00,,---,0.00,VWS V14.01,2013-08-18 12:21:00,
2013-08-18 05:26:00,58.8,57.1,29.90,SW,220,0.0,0.0,94,0.00,,---,0.00,VWS V14.01,2013-08-18 12:26:00,
2013-08-18 05:31:00,59.0,57.6,29.90,SW,220,0.0,0.0,95,0.00,,---,0.00,VWS V14.01,2013-08-18 12:31:00,
2013-08-18 05:36:00,59.2,57.8,29.90,SW,220,0.0,0.0,95,0.00,,---,0.00,VWS V14.01,2013-08-18 12:36:00,
2013-08-18 05:41:00,59.3,57.9,29.90,SW,220,0.0,0.0,95,0.00,,---,0.00,VWS V14.01,2013-08-18 12:41:00,
2013-08-18 05:46:00,59.4,58.0,29.90,SW,220,0.0,0.0,95,0.00,,---,0.00,VWS V14.01,2013-08-18 12:46:00,
2013-08-18 05:51:00,59.5,58.1,29.90,SW,220,0.0,0.0,95,0.00,,---,0.00,VWS V14.01,2013-08-18 12:51:00,
2013-08-18 05:56:00,59.7,58.3,29.90,SW,220,0.0,0.0,95,0.00,,---,0.00,VWS V14.01,2013-08-18 12:56:00,
2013-08-18 06:01:00,59.7,58.3,29.90,SW,220,0.0,0.0,95,0.00,,---,0.00,VWS V14.01,2013-08-18 13:01:00,
2013-08-18 06:06:00,59.7,58.3,29.90,SW,220,0.0,0.0,95,0.00,,---,0.00,VWS V14.01,2013-08-18 13:06:00,
2013-08-18 06:11:00,59.8,58.4,29.90,SW,220,0.0,0.0,95,0.00,,---,0.00,VWS V14.01,2013-08-18 13:11:00,
2013-08-18 06:16:00,59.8,58.4,29.90,SW,220,0.0,0.0,95,0.00,,---,0.00,VWS V14.01,2013-08-18 13:16:00,
2013-08-18 06:21:00,59.9,58.5,29.91,SW,220,0.0,0.0,95,0.00,,---,0.00,VWS V14.01,2013-08-18 13:21:00,
2013-08-18 06:26:00,60.0,58.6,29.91,SW,220,0.0,0.0,95,0.00,,---,0.00,VWS V14.01,2013-08-18 13:26:00,
2013-08-18 06:31:00,60.0,58.6,29.91,SW,220,0.0,0.0,95,0.00,,---,0.00,VWS V14.01,2013-08-18 13:31:00,
2013-08-18 06:36:00,60.0,58.6,29.91,SW,220,0.0,0.0,95,0.00,,---,0.00,VWS V14.01,2013-08-18 13:36:00,
2013-08-18 06:41:00,60.1,58.7,29.91,SW,220,0.0,0.0,95,0.00,,---,0.00,VWS V14.01,2013-08-18 13:41:00,
2013-08-18 06:46:00,60.2,59.1,29.91,SW,223,0.0,1.0,96,0.00,,---,0.00,VWS V14.01,2013-08-18 13:46:00,
2013-08-18 06:51:00,60.3,59.2,29.91,SW,223,0.0,1.0,96,0.00,,---,0.00,VWS V14.01,2013-08-18 13:51:00,
2013-08-18 06:56:00,60.3,59.2,29.91,SW,223,0.0,1.0,96,0.00,,---,0.00,VWS V14.01,2013-08-18 13:56:00,
2013-08-18 07:01:00,60.4,59.3,29.92,SW,223,0.0,0.0,96,0.00,,---,0.00,VWS V14.01,2013-08-18 14:01:00,
2013-08-18 07:06:00,60.4,59.3,29.92,SW,223,0.0,1.0,96,0.00,,---,0.00,VWS V14.01,2013-08-18 14:06:00,
2013-08-18 07:11:00,60.4,59.3,29.92,West,274,0.0,1.0,96,0.00,,---,0.00,VWS V14.01,2013-08-18 14:11:00,
2013-08-18 07:16:00,60.4,59.3,29.92,West,274,0.0,1.0,96,0.00,,---,0.00,VWS V14.01,2013-08-18 14:16:00,
2013-08-18 07:21:00,60.4,59.3,29.92,West,274,0.0,1.0,96,0.00,,---,0.00,VWS V14.01,2013-08-18 14:21:00,
2013-08-18 07:26:00,60.3,59.2,29.92,West,274,0.0,1.0,96,0.00,,---,0.00,VWS V14.01,2013-08-18 14:26:00,
2013-08-18 07:31:00,60.3,59.2,29.92,West,274,0.0,0.0,96,0.00,,---,0.00,VWS V14.01,2013-08-18 14:31:00,
2013-08-18 07:36:00,60.4,59.3,29.92,West,274,0.0,1.0,96,0.00,,---,0.00,VWS V14.01,2013-08-18 14:36:00,
2013-08-18 07:41:00,60.9,59.8,29.92,West,274,0.0,1.0,96,0.00,,---,0.00,VWS V14.01,2013-08-18 14:41:00,
2013-08-18 07:46:00,61.4,60.5,29.92,NNW,346,0.0,1.0,97,0.00,,---,0.00,VWS V14.01,2013-08-18 14:46:00,
2013-08-18 07:51:00,61.7,60.5,29.92,North,355,0.0,1.0,96,0.00,,---,0.00,VWS V14.01,2013-08-18 14:51:00,
2013-08-18 07:56:00,62.3,61.2,29.92,North,9,0.0,1.0,96,0.00,,---,0.00,VWS V14.01,2013-08-18 14:56:00,
2013-08-18 08:01:00,62.9,61.8,29.92,North,9,0.0,1.0,96,0.00,,---,0.00,VWS V14.01,2013-08-18 15:01:00,
2013-08-18 08:06:00,63.7,62.2,29.91,North,9,0.0,1.0,95,0.00,,---,0.00,VWS V14.01,2013-08-18 15:06:00,
2013-08-18 08:11:00,64.3,62.2,29.92,NNE,16,0.0,1.0,93,0.00,,---,0.00,VWS V14.01,2013-08-18 15:11:00,
2013-08-18 08:16:00,65.1,62.4,29.92,ESE,106,0.0,1.0,91,0.00,,---,0.00,VWS V14.01,2013-08-18 15:16:00,
2013-08-18 08:21:00,65.2,61.6,29.91,ESE,115,0.0,1.0,88,0.00,,---,0.00,VWS V14.01,2013-08-18 15:21:00,
2013-08-18 08:26:00,65.3,61.7,29.91,ESE,117,0.0,2.0,88,0.00,,---,0.00,VWS V14.01,2013-08-18 15:26:00,
2013-08-18 08:31:00,65.7,62.0,29.91,ESE,117,0.0,0.0,88,0.00,,---,0.00,VWS V14.01,2013-08-18 15:31:00,
2013-08-18 08:36:00,66.3,62.0,29.91,SE,124,0.0,4.0,86,0.00,,---,0.00,VWS V14.01,2013-08-18 15:36:00,
2013-08-18 08:41:00,66.9,62.2,29.92,SE,136,0.0,5.0,85,0.00,,---,0.00,VWS V14.01,2013-08-18 15:41:00,
2013-08-18 08:46:00,67.4,62.1,29.92,SE,136,1.0,5.0,83,0.00,,---,0.00,VWS V14.01,2013-08-18 15:46:00,
2013-08-18 08:51:00,68.1,62.4,29.91,ESE,113,0.0,5.0,82,0.00,,---,0.00,VWS V14.01,2013-08-18 15:51:00,
2013-08-18 08:56:00,68.7,62.6,29.92,SE,124,0.0,5.0,81,0.00,,---,0.00,VWS V14.01,2013-08-18 15:56:00,
2013-08-18 09:01:00,70.0,63.2,29.92,ENE,66,0.0,1.0,79,0.00,,---,0.00,VWS V14.01,2013-08-18 16:01:00,
2013-08-18 09:06:00,70.7,63.1,29.92,SE,138,0.0,2.0,77,0.00,,---,0.00,VWS V14.01,2013-08-18 16:06:00,
2013-08-18 09:11:00,71.2,63.6,29.91,East,98,0.0,2.0,77,0.00,,---,0.00,VWS V14.01,2013-08-18 16:11:00,
2013-08-18 09:16:00,72.0,63.7,29.91,SSE,156,4.0,5.0,75,0.00,,---,0.00,VWS V14.01,2013-08-18 16:16:00,
2013-08-18 09:21:00,71.9,63.2,29.91,SE,127,0.0,5.0,74,0.00,,---,0.00,VWS V14.01,2013-08-18 16:21:00,
2013-08-18 09:26:00,72.4,63.7,29.92,ESE,113,1.0,5.0,74,0.00,,---,0.00,VWS V14.01,2013-08-18 16:26:00,
2013-08-18 09:31:00,72.8,63.3,29.92,SE,126,0.0,5.0,72,0.00,,---,0.00,VWS V14.01,2013-08-18 16:31:00,
2013-08-18 09:36:00,73.0,63.5,29.92,ESE,111,2.0,5.0,72,0.00,,---,0.00,VWS V14.01,2013-08-18 16:36:00,
2013-08-18 09:41:00,73.0,63.5,29.92,SSE,150,4.0,5.0,72,0.00,,---,0.00,VWS V14.01,2013-08-18 16:41:00,
2013-08-18 09:46:00,73.1,63.5,29.92,SSE,163,0.0,6.0,72,0.00,,---,0.00,VWS V14.01,2013-08-18 16:46:00,
2013-08-18 09:51:00,73.3,63.7,29.92,SSE,148,0.0,6.0,72,0.00,,---,0.00,VWS V14.01,2013-08-18 16:51:00,
2013-08-18 09:56:00,74.0,63.6,29.92,SE,130,0.0,6.0,70,0.00,,---,0.00,VWS V14.01,2013-08-18 16:56:00,
2013-08-18 10:01:00,74.9,63.6,29.92,SSE,150,4.0,6.0,68,0.00,,---,0.00,VWS V14.01,2013-08-18 17:01:00,
2013-08-18 10:06:00,75.2,63.9,29.92,SE,146,0.0,6.0,68,0.00,,---,0.00,VWS V14.01,2013-08-18 17:06:00,
2013-08-18 10:11:00,75.5,64.2,29.92,SSW,198,0.0,6.0,68,0.00,,---,0.00,VWS V14.01,2013-08-18 17:11:00,
2013-08-18 10:16:00,75.9,64.2,29.92,SSE,148,0.0,6.0,67,0.00,,---,0.00,VWS V14.01,2013-08-18 17:16:00,
2013-08-18 10:20:00,76.1,64.4,29.92,WSW,254,0.0,6.0,67,0.00,,---,0.00,VWS V14.01,2013-08-18 17:20:00,
2013-08-18 10:25:00,76.6,64.0,29.92,SSW,196,2.0,6.0,65,0.00,,---,0.00,VWS V14.01,2013-08-18 17:25:00,
2013-08-18 10:30:00,76.5,63.4,29.92,South,190,0.0,5.0,64,0.00,,---,0.00,VWS V14.01,2013-08-18 17:30:00,
2013-08-18 10:35:00,76.5,63.9,29.92,SSW,201,1.0,7.0,65,0.00,,---,0.00,VWS V14.01,2013-08-18 17:35:00,
2013-08-18 10:40:00,77.2,64.1,29.92,SW,223,0.0,7.0,64,0.00,,---,0.00,VWS V14.01,2013-08-18 17:40:00,
2013-08-18 10:45:00,77.6,63.6,29.92,SSW,203,0.0,7.0,62,0.00,,---,0.00,VWS V14.01,2013-08-18 17:45:00,
2013-08-18 10:50:00,78.1,64.0,29.92,SE,136,1.0,7.0,62,0.00,,---,0.00,VWS V14.01,2013-08-18 17:50:00,
2013-08-18 10:55:00,78.3,63.8,29.92,SE,138,1.0,7.0,61,0.00,,---,0.00,VWS V14.01,2013-08-18 17:55:00,
2013-08-18 11:00:00,78.7,63.7,29.92,SE,129,0.0,1.0,60,0.00,,---,0.00,VWS V14.01,2013-08-18 18:00:00,
2013-08-18 11:05:00,79.1,63.6,29.92,SE,136,1.0,6.0,59,0.00,,---,0.00,VWS V14.01,2013-08-18 18:05:00,
2013-08-18 11:10:00,79.4,63.3,29.92,SSW,206,0.0,6.0,58,0.00,,---,0.00,VWS V14.01,2013-08-18 18:10:00,
2013-08-18 11:15:00,79.6,63.5,29.92,SW,225,1.0,6.0,58,0.00,,---,0.00,VWS V14.01,2013-08-18 18:15:00,
2013-08-18 11:20:00,79.8,63.2,29.92,ESE,108,0.0,6.0,57,0.00,,---,0.00,VWS V14.01,2013-08-18 18:20:00,
2013-08-18 11:25:00,80.2,63.6,29.92,SSE,167,4.0,6.0,57,0.00,,---,0.00,VWS V14.01,2013-08-18 18:25:00,
2013-08-18 11:30:00,80.4,63.3,29.92,NE,53,0.0,4.0,56,0.00,,---,0.00,VWS V14.01,2013-08-18 18:30:00,
2013-08-18 11:35:00,80.6,63.0,29.92,SW,215,3.0,7.0,55,0.00,,---,0.00,VWS V14.01,2013-08-18 18:35:00,
2013-08-18 11:40:00,80.1,63.0,29.92,ESE,114,4.0,7.0,56,0.00,,---,0.00,VWS V14.01,2013-08-18 18:40:00,
2013-08-18 11:45:00,80.2,62.6,29.92,SE,130,2.0,8.0,55,0.00,,---,0.00,VWS V14.01,2013-08-18 18:45:00,
2013-08-18 11:50:00,80.6,63.0,29.92,South,178,0.0,8.0,55,0.00,,---,0.00,VWS V14.01,2013-08-18 18:50:00,
2013-08-18 11:55:00,80.8,62.6,29.92,NW,307,0.0,8.0,54,0.00,,---,0.00,VWS V14.01,2013-08-18 18:55:00,
2013-08-18 12:00:00,81.0,63.8,29.92,WNW,299,2.0,6.0,56,0.00,,---,0.00,VWS V14.01,2013-08-18 19:00:00,
2013-08-18 12:05:00,81.1,64.9,29.92,SE,137,6.0,8.0,58,0.00,,---,0.00,VWS V14.01,2013-08-18 19:05:00,
2013-08-18 12:10:00,80.9,64.2,29.92,WNW,296,0.0,11.0,57,0.00,,---,0.00,VWS V14.01,2013-08-18 19:10:00,
2013-08-18 12:15:00,81.6,64.9,29.92,SE,137,1.0,11.0,57,0.00,,---,0.00,VWS V14.01,2013-08-18 19:15:00,
2013-08-18 12:20:00,81.3,64.6,29.92,SW,235,0.0,11.0,57,0.00,,---,0.00,VWS V14.01,2013-08-18 19:20:00,
2013-08-18 12:25:00,81.1,64.4,29.92,SSW,196,5.0,11.0,57,0.00,,---,0.00,VWS V14.01,2013-08-18 19:25:00,
2013-08-18 12:30:00,80.3,64.7,29.92,NNE,29,0.0,12.0,59,0.00,,---,0.00,VWS V14.01,2013-08-18 19:30:00,
2013-08-18 12:35:00,80.3,64.7,29.92,SE,145,7.0,12.0,59,0.00,,---,0.00,VWS V14.01,2013-08-18 19:35:00,
2013-08-18 12:40:00,79.4,64.3,29.92,SSW,193,0.0,12.0,60,0.00,,---,0.00,VWS V14.01,2013-08-18 19:40:00,
2013-08-18 12:45:00,79.8,64.7,29.91,SE,131,0.0,12.0,60,0.00,,---,0.00,VWS V14.01,2013-08-18 19:45:00,
2013-08-18 12:50:00,79.7,64.6,29.91,ESE,103,7.0,12.0,60,0.00,,---,0.00,VWS V14.01,2013-08-18 19:50:00,
2013-08-18 12:55:00,79.8,64.7,29.91,SW,228,0.0,12.0,60,0.00,,---,0.00,VWS V14.01,2013-08-18 19:55:00,
2013-08-18 13:00:00,80.6,64.5,29.92,South,184,0.0,7.0,58,0.00,,---,0.00,VWS V14.01,2013-08-18 20:00:00,
2013-08-18 13:05:00,80.8,64.7,29.92,SE,142,4.0,7.0,58,0.00,,---,0.00,VWS V14.01,2013-08-18 20:05:00,
2013-08-18 13:10:00,81.0,64.8,29.92,SSW,213,7.0,7.0,58,0.00,,---,0.00,VWS V14.01,2013-08-18 20:10:00,
2013-08-18 13:15:00,80.4,64.3,29.91,West,275,0.0,7.0,58,0.00,,---,0.00,VWS V14.01,2013-08-18 20:15:00,
2013-08-18 13:20:00,80.2,64.1,29.91,SE,130,4.0,8.0,58,0.00,,---,0.00,VWS V14.01,2013-08-18 20:20:00,
2013-08-18 13:25:00,80.2,64.1,29.91,SE,125,0.0,8.0,58,0.00,,---,0.00,VWS V14.01,2013-08-18 20:25:00,
2013-08-18 13:30:00,80.0,63.9,29.91,SE,130,7.0,8.0,58,0.00,,---,0.00,VWS V14.01,2013-08-18 20:30:00,
2013-08-18 13:35:00,80.0,63.9,29.91,ESE,109,1.0,8.0,58,0.00,,---,0.00,VWS V14.01,2013-08-18 20:35:00,
2013-08-18 13:40:00,80.2,63.6,29.91,SE,137,5.0,9.0,57,0.00,,---,0.00,VWS V14.01,2013-08-18 20:40:00,
2013-08-18 13:45:00,79.8,63.2,29.91,ESE,120,1.0,9.0,57,0.00,,---,0.00,VWS V14.01,2013-08-18 20:45:00,
2013-08-18 13:50:00,80.3,63.2,29.91,SE,140,5.0,9.0,56,0.00,,---,0.00,VWS V14.01,2013-08-18 20:50:00,
2013-08-18 13:55:00,80.4,62.8,29.91,SE,138,4.0,9.0,55,0.00,,---,0.00,VWS V14.01,2013-08-18 20:55:00,
2013-08-18 14:00:00,80.4,62.8,29.91,SSE,147,1.0,7.0,55,0.00,,---,0.00,VWS V14.01,2013-08-18 21:00:00,
2013-08-18 14:05:00,80.4,62.2,29.90,South,169,0.0,7.0,54,0.00,,---,0.00,VWS V14.01,2013-08-18 21:05:00,
2013-08-18 14:10:00,80.0,61.9,29.90,SSE,154,0.0,10.0,54,0.00,,---,0.00,VWS V14.01,2013-08-18 21:10:00,
2013-08-18 14:15:00,79.9,62.3,29.90,SE,136,7.0,10.0,55,0.00,,---,0.00,VWS V14.01,2013-08-18 21:15:00,
2013-08-18 14:20:00,80.2,62.1,29.90,NW,306,1.0,10.0,54,0.00,,---,0.00,VWS V14.01,2013-08-18 21:20:00,
2013-08-18 14:25:00,80.1,62.0,29.90,SSE,157,0.0,10.0,54,0.00,,---,0.00,VWS V14.01,2013-08-18 21:25:00,
2013-08-18 14:30:00,80.8,62.1,29.90,SW,215,6.0,7.0,53,0.00,,---,0.00,VWS V14.01,2013-08-18 21:30:00,
2013-08-18 14:35:00,80.3,62.2,29.90,SSE,167,5.0,11.0,54,0.00,,---,0.00,VWS V14.01,2013-08-18 21:35:00,
2013-08-18 14:40:00,80.0,62.4,29.90,SE,146,2.0,11.0,55,0.00,,---,0.00,VWS V14.01,2013-08-18 21:40:00,
2013-08-18 14:45:00,80.2,62.6,29.90,East,95,4.0,11.0,55,0.00,,---,0.00,VWS V14.01,2013-08-18 21:45:00,
2013-08-18 14:50:00,80.3,62.2,29.90,ESE,102,5.0,11.0,54,0.00,,---,0.00,VWS V14.01,2013-08-18 21:50:00,
2013-08-18 14:55:00,79.7,61.6,29.89,SW,218,1.0,11.0,54,0.00,,---,0.00,VWS V14.01,2013-08-18 21:55:00,
2013-08-18 15:00:00,79.9,62.3,29.89,West,267,0.0,6.0,55,0.00,,---,0.00,VWS V14.01,2013-08-18 22:00:00,
2013-08-18 15:05:00,80.1,62.5,29.89,SSE,165,2.0,8.0,55,0.00,,---,0.00,VWS V14.01,2013-08-18 22:05:00,
2013-08-18 15:10:00,79.8,61.7,29.89,SSE,155,11.0,12.0,54,0.00,,---,0.00,VWS V14.01,2013-08-18 22:10:00,
2013-08-18 15:15:00,79.2,62.2,29.89,SSE,153,6.0,12.0,56,0.00,,---,0.00,VWS V14.01,2013-08-18 22:15:00,
2013-08-18 15:20:00,78.6,62.6,29.89,SSE,165,0.0,12.0,58,0.00,,---,0.00,VWS V14.01,2013-08-18 22:20:00,
2013-08-18 15:25:00,78.6,62.1,29.89,SSE,147,4.0,12.0,57,0.00,,---,0.00,VWS V14.01,2013-08-18 22:25:00,
2013-08-18 15:30:00,78.3,61.8,29.88,SSW,213,3.0,10.0,57,0.00,,---,0.00,VWS V14.01,2013-08-18 22:30:00,
2013-08-18 15:35:00,78.2,61.7,29.88,SSE,161,1.0,10.0,57,0.00,,---,0.00,VWS V14.01,2013-08-18 22:35:00,
2013-08-18 15:40:00,78.9,61.9,29.88,SE,132,4.0,10.0,56,0.00,,---,0.00,VWS V14.01,2013-08-18 22:40:00,
2013-08-18 15:45:00,79.4,61.8,29.88,ESE,105,0.0,10.0,55,0.00,,---,0.00,VWS V14.01,2013-08-18 22:45:00,
2013-08-18 15:50:00,79.4,61.8,29.88,WSW,240,0.0,10.0,55,0.00,,---,0.00,VWS V14.01,2013-08-18 22:50:00,
2013-08-18 15:55:00,79.2,61.7,29.88,SE,129,5.0,12.0,55,0.00,,---,0.00,VWS V14.01,2013-08-18 22:55:00,
2013-08-18 16:00:00,78.1,61.6,29.88,SSE,166,1.0,6.0,57,0.00,,---,0.00,VWS V14.01,2013-08-18 23:00:00,
2013-08-18 16:05:00,78.5,62.0,29.88,SSE,168,0.0,8.0,57,0.00,,---,0.00,VWS V14.01,2013-08-18 23:05:00,
2013-08-18 16:10:00,78.6,61.6,29.88,SSE,162,0.0,8.0,56,0.00,,---,0.00,VWS V14.01,2013-08-18 23:10:00,
2013-08-18 16:15:00,77.9,61.5,29.88,WSW,248,2.0,9.0,57,0.00,,---,0.00,VWS V14.01,2013-08-18 23:15:00,
2013-08-18 16:20:00,77.5,61.1,29.88,South,184,0.0,9.0,57,0.00,,---,0.00,VWS V14.01,2013-08-18 23:20:00,
2013-08-18 16:25:00,77.2,61.3,29.88,South,175,4.0,10.0,58,0.00,,---,0.00,VWS V14.01,2013-08-18 23:25:00,
2013-08-18 16:30:00,77.0,61.1,29.88,SW,223,1.0,6.0,58,0.00,,---,0.00,VWS V14.01,2013-08-18 23:30:00,
2013-08-18 16:35:00,77.2,61.8,29.88,SSE,150,0.0,6.0,59,0.00,,---,0.00,VWS V14.01,2013-08-18 23:35:00,
2013-08-18 16:40:00,77.3,61.4,29.88,SE,146,0.0,10.0,58,0.00,,---,0.00,VWS V14.01,2013-08-18 23:40:00,
2013-08-18 16:45:00,76.4,61.0,29.88,SE,141,2.0,11.0,59,0.00,,---,0.00,VWS V14.01,2013-08-18 23:45:00,
2013-08-18 16:50:00,76.2,61.8,29.88,WSW,253,0.0,11.0,61,0.00,,---,0.00,VWS V14.01,2013-08-18 23:50:00,
2013-08-18 16:55:00,76.3,61.4,29.88,ESE,105,0.0,11.0,60,0.00,,---,0.00,VWS V14.01,2013-08-18 23:55:00,
2013-08-18 17:00:00,76.7,61.3,29.88,West,275,0.0,7.0,59,0.00,,---,0.00,VWS V14.01,2013-08-19 00:00:00,
2013-08-18 17:05:00,76.5,61.1,29.88,SE,143,0.0,7.0,59,0.00,,---,0.00,VWS V14.01,2013-08-19 00:05:00,
2013-08-18 17:10:00,76.3,61.4,29.88,SSE,166,1.0,7.0,60,0.00,,---,0.00,VWS V14.01,2013-08-19 00:10:00,
2013-08-18 17:15:00,76.0,61.6,29.88,South,180,2.0,8.0,61,0.00,,---,0.00,VWS V14.01,2013-08-19 00:15:00,
2013-08-18 17:20:00,75.6,61.7,29.89,NW,313,0.0,8.0,62,0.00,,---,0.00,VWS V14.01,2013-08-19 00:20:00,
2013-08-18 17:25:00,75.6,61.7,29.89,SSW,198,0.0,8.0,62,0.00,,---,0.00,VWS V14.01,2013-08-19 00:25:00,
2013-08-18 17:30:00,74.8,61.4,29.88,SE,142,1.0,7.0,63,0.00,,---,0.00,VWS V14.01,2013-08-19 00:30:00,
2013-08-18 17:35:00,73.9,61.4,29.89,SE,128,2.0,8.0,65,0.00,,---,0.00,VWS V14.01,2013-08-19 00:35:00,
2013-08-18 17:40:00,73.1,61.1,29.89,WSW,245,0.0,8.0,66,0.00,,---,0.00,VWS V14.01,2013-08-19 00:40:00,
2013-08-18 17:45:00,73.2,61.2,29.89,SSW,208,0.0,8.0,66,0.00,,---,0.00,VWS V14.01,2013-08-19 00:45:00,
2013-08-18 17:50:00,73.4,61.8,29.89,SSE,155,0.0,8.0,67,0.00,,---,0.00,VWS V14.01,2013-08-19 00:50:00,
2013-08-18 17:55:00,73.6,61.5,29.88,SE,140,1.0,8.0,66,0.00,,---,0.00,VWS V14.01,2013-08-19 00:55:00,
2013-08-18 18:00:00,73.0,61.0,29.88,South,180,0.0,8.0,66,0.00,,---,0.00,VWS V14.01,2013-08-19 01:00:00,
2013-08-18 18:05:00,72.6,61.0,29.89,SE,144,1.0,8.0,67,0.00,,---,0.00,VWS V14.01,2013-08-19 01:05:00,
2013-08-18 18:10:00,72.4,61.2,29.89,WSW,242,0.0,8.0,68,0.00,,---,0.00,VWS V14.01,2013-08-19 01:10:00,
2013-08-18 18:15:00,72.2,61.1,29.89,SSW,200,0.0,8.0,68,0.00,,---,0.00,VWS V14.01,2013-08-19 01:15:00,
2013-08-18 18:20:00,71.8,61.1,29.89,SE,144,0.0,8.0,69,0.00,,---,0.00,VWS V14.01,2013-08-19 01:20:00,
2013-08-18 18:25:00,71.7,61.4,29.89,SE,144,6.0,8.0,70,0.00,,---,0.00,VWS V14.01,2013-08-19 01:25:00,
2013-08-18 18:30:00,71.5,61.2,29.89,South,183,0.0,2.0,70,0.00,,---,0.00,VWS V14.01,2013-08-19 01:30:00,
2013-08-18 18:35:00,71.1,61.2,29.89,SE,127,5.0,5.0,71,0.00,,---,0.00,VWS V14.01,2013-08-19 01:35:00,
2013-08-18 18:40:00,70.8,61.3,29.89,South,178,0.0,6.0,72,0.00,,---,0.00,VWS V14.01,2013-08-19 01:40:00,
2013-08-18 18:45:00,70.7,61.2,29.90,SE,143,1.0,6.0,72,0.00,,---,0.00,VWS V14.01,2013-08-19 01:45:00,
2013-08-18 18:50:00,70.4,61.3,29.89,West,275,0.0,6.0,73,0.00,,---,0.00,VWS V14.01,2013-08-19 01:50:00,
2013-08-18 18:55:00,70.2,61.2,29.89,SW,227,0.0,6.0,73,0.00,,---,0.00,VWS V14.01,2013-08-19 01:55:00,
2013-08-18 19:00:00,70.1,61.4,29.90,SE,128,0.0,0.0,74,0.00,,---,0.00,VWS V14.01,2013-08-19 02:00:00,
2013-08-18 19:05:00,69.9,61.2,29.90,SSW,207,0.0,6.0,74,0.00,,---,0.00,VWS V14.01,2013-08-19 02:05:00,
2013-08-18 19:10:00,69.7,61.0,29.90,ESE,109,0.0,6.0,74,0.00,,---,0.00,VWS V14.01,2013-08-19 02:10:00,
2013-08-18 19:15:00,69.5,60.9,29.90,SSW,200,0.0,6.0,74,0.00,,---,0.00,VWS V14.01,2013-08-19 02:15:00,
2013-08-18 19:20:00,69.2,61.0,29.90,SSE,165,0.0,6.0,75,0.00,,---,0.00,VWS V14.01,2013-08-19 02:20:00,
2013-08-18 19:25:00,68.8,60.6,29.91,SSW,212,0.0,6.0,75,0.00,,---,0.00,VWS V14.01,2013-08-19 02:25:00,
2013-08-18 19:30:00,68.6,60.7,29.91,SSE,151,0.0,0.0,76,0.00,,---,0.00,VWS V14.01,2013-08-19 02:30:00,
2013-08-18 19:35:00,68.3,60.5,29.91,SW,221,1.0,1.0,76,0.00,,---,0.00,VWS V14.01,2013-08-19 02:35:00,
2013-08-18 19:40:00,67.9,60.4,29.91,South,174,0.0,2.0,77,0.00,,---,0.00,VWS V14.01,2013-08-19 02:40:00,
2013-08-18 19:45:00,67.7,60.6,29.91,South,174,0.0,2.0,78,0.00,,---,0.00,VWS V14.01,2013-08-19 02:45:00,
2013-08-18 19:50:00,67.4,60.3,29.91,South,176,0.0,2.0,78,0.00,,---,0.00,VWS V14.01,2013-08-19 02:50:00,
2013-08-18 19:55:00,67.2,60.5,29.91,SSW,200,0.0,2.0,79,0.00,,---,0.00,VWS V14.01,2013-08-19 02:55:00,
2013-08-18 20:00:00,66.9,60.2,29.91,SSW,198,0.0,1.0,79,0.00,,---,0.00,VWS V14.01,2013-08-19 03:00:00,
2013-08-18 20:05:00,66.6,60.2,29.91,South,181,0.0,1.0,80,0.00,,---,0.00,VWS V14.01,2013-08-19 03:05:00,
2013-08-18 20:10:00,66.4,60.0,29.92,SSW,204,0.0,2.0,80,0.00,,---,0.00,VWS V14.01,2013-08-19 03:10:00,
2013-08-18 20:15:00,66.1,60.1,29.92,SSE,160,0.0,2.0,81,0.00,,---,0.00,VWS V14.01,2013-08-19 03:15:00,
2013-08-18 20:20:00,65.9,59.9,29.92,SW,215,0.0,2.0,81,0.00,,---,0.00,VWS V14.01,2013-08-19 03:20:00,
2013-08-18 20:25:00,65.7,60.1,29.92,SSW,212,0.0,2.0,82,0.00,,---,0.00,VWS V14.01,2013-08-19 03:25:00,
2013-08-18 20:30:00,65.5,59.9,29.92,SSW,212,0.0,0.0,82,0.00,,---,0.00,VWS V14.01,2013-08-19 03:30:00,
2013-08-18 20:35:00,65.4,59.8,29.93,SSW,212,0.0,0.0,82,0.00,,---,0.00,VWS V14.01,2013-08-19 03:35:00,
2013-08-18 20:40:00,65.2,59.9,29.93,SW,233,0.0,1.0,83,0.00,,---,0.00,VWS V14.01,2013-08-19 03:40:00,
2013-08-18 20:45:00,65.0,59.7,29.93,SW,233,0.0,1.0,83,0.00,,---,0.00,VWS V14.01,2013-08-19 03:45:00,
2013-08-18 20:50:00,64.9,59.6,29.93,SW,233,0.0,1.0,83,0.00,,---,0.00,VWS V14.01,2013-08-19 03:50:00,
2013-08-18 20:55:00,64.8,59.9,29.93,SW,233,0.0,1.0,84,0.00,,---,0.00,VWS V14.01,2013-08-19 03:55:00,
2013-08-18 21:00:00,64.8,59.9,29.93,SW,233,0.0,0.0,84,0.00,,---,0.00,VWS V14.01,2013-08-19 04:00:00,
2013-08-18 21:01:00,64.7,59.8,29.93,SW,233,0.0,0.0,84,0.00,,---,0.00,VWS V14.01,2013-08-19 04:01:00,
2013-08-18 21:06:00,64.7,59.8,29.94,SW,233,0.0,1.0,84,0.00,,---,0.00,VWS V14.01,2013-08-19 04:06:00,
2013-08-18 21:11:00,64.6,59.7,29.94,SW,233,0.0,1.0,84,0.00,,---,0.00,VWS V14.01,2013-08-19 04:11:00,
2013-08-18 21:16:00,64.4,59.8,29.94,SW,233,0.0,1.0,85,0.00,,---,0.00,VWS V14.01,2013-08-19 04:16:00,
2013-08-18 21:21:00,64.2,59.6,29.94,SW,233,0.0,1.0,85,0.00,,---,0.00,VWS V14.01,2013-08-19 04:21:00,
2013-08-18 21:26:00,64.0,59.7,29.95,SW,233,0.0,1.0,86,0.00,,---,0.00,VWS V14.01,2013-08-19 04:26:00,
2013-08-18 21:31:00,63.9,59.6,29.95,SW,233,0.0,0.0,86,0.00,,---,0.00,VWS V14.01,2013-08-19 04:31:00,
2013-08-18 21:36:00,63.8,59.5,29.95,SW,233,0.0,0.0,86,0.00,,---,0.00,VWS V14.01,2013-08-19 04:36:00,
2013-08-18 21:41:00,63.8,59.5,29.95,SW,233,0.0,0.0,86,0.00,,---,0.00,VWS V14.01,2013-08-19 04:41:00,
2013-08-18 21:46:00,63.6,59.7,29.95,SW,233,0.0,0.0,87,0.00,,---,0.00,VWS V14.01,2013-08-19 04:46:00,
2013-08-18 21:51:00,63.6,59.7,29.95,SW,233,0.0,0.0,87,0.00,,---,0.00,VWS V14.01,2013-08-19 04:51:00,
2013-08-18 21:56:00,63.5,59.6,29.95,SW,233,0.0,0.0,87,0.00,,---,0.00,VWS V14.01,2013-08-19 04:56:00,
2013-08-18 22:01:00,63.4,59.5,29.95,SW,233,0.0,0.0,87,0.00,,---,0.00,VWS V14.01,2013-08-19 05:01:00,
2013-08-18 22:06:00,63.3,59.4,29.95,SW,233,0.0,0.0,87,0.00,,---,0.00,VWS V14.01,2013-08-19 05:06:00,
2013-08-18 22:11:00,63.2,59.3,29.95,SW,233,0.0,0.0,87,0.00,,---,0.00,VWS V14.01,2013-08-19 05:11:00,
2013-08-18 22:16:00,63.1,59.5,29.95,SW,233,0.0,0.0,88,0.00,,---,0.00,VWS V14.01,2013-08-19 05:16:00,
2013-08-18 22:21:00,63.0,59.4,29.95,SW,233,0.0,0.0,88,0.00,,---,0.00,VWS V14.01,2013-08-19 05:21:00,
2013-08-18 22:26:00,62.9,59.3,29.96,SW,233,0.0,0.0,88,0.00,,---,0.00,VWS V14.01,2013-08-19 05:26:00,
2013-08-18 22:31:00,62.9,59.3,29.95,SW,233,0.0,0.0,88,0.00,,---,0.00,VWS V14.01,2013-08-19 05:31:00,
2013-08-18 22:36:00,62.8,59.2,29.95,SW,233,0.0,0.0,88,0.00,,---,0.00,VWS V14.01,2013-08-19 05:36:00,
2013-08-18 22:41:00,62.7,59.4,29.96,SW,233,0.0,0.0,89,0.00,,---,0.00,VWS V14.01,2013-08-19 05:41:00,
2013-08-18 22:46:00,62.7,59.4,29.96,SW,233,0.0,0.0,89,0.00,,---,0.00,VWS V14.01,2013-08-19 05:46:00,
2013-08-18 22:51:00,62.6,59.3,29.96,SW,233,0.0,1.0,89,0.00,,---,0.00,VWS V14.01,2013-08-19 05:51:00,
2013-08-18 22:56:00,62.5,59.2,29.96,SW,233,0.0,1.0,89,0.00,,---,0.00,VWS V14.01,2013-08-19 05:56:00,
2013-08-18 23:01:00,62.4,59.1,29.96,SW,233,0.0,0.0,89,0.00,,---,0.00,VWS V14.01,2013-08-19 06:01:00,
2013-08-18 23:06:00,62.4,59.1,29.96,SW,233,0.0,0.0,89,0.00,,---,0.00,VWS V14.01,2013-08-19 06:06:00,
2013-08-18 23:11:00,62.3,59.3,29.96,SW,233,0.0,0.0,90,0.00,,---,0.00,VWS V14.01,2013-08-19 06:11:00,
2013-08-18 23:16:00,62.2,59.2,29.96,SW,233,0.0,0.0,90,0.00,,---,0.00,VWS V14.01,2013-08-19 06:16:00,
2013-08-18 23:21:00,62.1,59.1,29.96,SW,233,0.0,0.0,90,0.00,,---,0.00,VWS V14.01,2013-08-19 06:21:00,
2013-08-18 23:26:00,62.1,59.1,29.97,SW,233,0.0,0.0,90,0.00,,---,0.00,VWS V14.01,2013-08-19 06:26:00,
2013-08-18 23:31:00,62.0,59.0,29.97,SW,233,0.0,0.0,90,0.00,,---,0.00,VWS V14.01,2013-08-19 06:31:00,
2013-08-18 23:36:00,62.0,59.0,29.97,SW,233,0.0,0.0,90,0.00,,---,0.00,VWS V14.01,2013-08-19 06:36:00,
2013-08-18 23:41:00,62.0,59.3,29.97,SW,233,0.0,0.0,91,0.00,,---,0.00,VWS V14.01,2013-08-19 06:41:00,
2013-08-18 23:46:00,62.0,59.3,29.97,SW,233,0.0,0.0,91,0.00,,---,0.00,VWS V14.01,2013-08-19 06:46:00,
2013-08-18 23:51:00,62.0,59.3,29.97,SW,233,0.0,0.0,91,0.00,,---,0.00,VWS V14.01,2013-08-19 06:51:00,
2013-08-18 23:56:00,61.9,59.2,29.97,SW,233,0.0,0.0,91,0.00,,---,0.00,VWS V14.01,2013-08-19 06:56:00,